Time,TemperatureF,DewpointF,PressureIn,WindDirection,WindDirectionDegrees,WindSpeedMPH,WindSpeedGustMPH,Humidity,HourlyPrecipIn,Conditions,Clouds,dailyrainin,SoftwareType,DateUTC
2017-03-25 00:00:00,56.5,21.1,30.01,North,0,0.0,0.0,25,0.00,,,0.00,LWC V2.00 B727,2017-03-25 07:00:00,
2017-03-25 00:10:00,56.7,20.3,30.00,North,0,0.0,0.0,24,0.00,,,0.00,LWC V2.00 B727,2017-03-25 07:10:00,
2017-03-25 00:20:00,56.7,20.3,30.00,North,0,0.0,0.0,24,0.00,,,0.00,LWC V2.00 B727,2017-03-25 07:20:00,
2017-03-25 00:30:00,56.7,20.3,30.00,North,0,0.0,0.0,24,0.00,,,0.00,LWC V2.00 B727,2017-03-25 07:30:00,
2017-03-25 00:40:00,57.2,18.7,29.99,North,0,0.0,0.0,22,0.00,,,0.00,LWC V2.00 B727,2017-03-25 07:40:00,
2017-03-25 00:50:00,57.2,18.7,29.99,North,0,0.0,0.0,22,0.00,,,0.00,LWC V2.00 B727,2017-03-25 07:50:00,
2017-03-25 01:00:00,57.2,18.7,29.99,North,0,0.0,0.0,22,0.00,,,0.00,LWC V2.00 B727,2017-03-25 08:00:00,
2017-03-25 01:10:00,55.9,18.7,29.97,North,0,0.0,0.0,23,0.00,,,0.00,LWC V2.00 B727,2017-03-25 08:10:00,
2017-03-25 01:20:00,55.9,18.7,29.97,North,0,0.0,0.0,23,0.00,,,0.00,LWC V2.00 B727,2017-03-25 08:20:00,
2017-03-25 01:30:00,55.9,18.7,29.97,North,0,0.0,0.0,23,0.00,,,0.00,LWC V2.00 B727,2017-03-25 08:30:00,
2017-03-25 01:40:00,54.8,18.7,29.95,North,0,0.0,0.0,24,0.00,,,0.00,LWC V2.00 B727,2017-03-25 08:40:00,
2017-03-25 01:50:00,54.8,18.7,29.95,North,0,0.0,0.0,24,0.00,,,0.00,LWC V2.00 B727,2017-03-25 08:50:00,
2017-03-25 02:00:00,54.8,18.7,29.95,North,0,0.0,0.0,24,0.00,,,0.00,LWC V2.00 B727,2017-03-25 09:00:00,
2017-03-25 02:10:00,54.8,18.7,29.95,North,0,0.0,0.0,24,0.00,,,0.00,LWC V2.00 B727,2017-03-25 09:10:00,
2017-03-25 02:20:00,54.8,18.7,29.95,North,0,0.0,0.0,24,0.00,,,0.00,LWC V2.00 B727,2017-03-25 09:20:00,
2017-03-25 02:50:00,54.8,18.7,29.95,North,0,0.0,0.0,24,0.00,,,0.00,LWC V2.00 B727,2017-03-25 09:50:00,
2017-03-25 03:07:00,55.0,17.9,29.95,ENE,62,0.0,0.0,23,0.00,,,0.00,LWC V2.00 B727,2017-03-25 10:07:00,
2017-03-25 03:12:00,55.4,18.2,29.95,ENE,62,0.0,0.0,23,0.00,,,0.00,LWC V2.00 B727,2017-03-25 10:12:00,
2017-03-25 03:17:00,55.9,17.6,29.96,ENE,62,0.0,0.0,22,0.00,,,0.00,LWC V2.00 B727,2017-03-25 10:17:00,
2017-03-25 03:22:00,55.9,18.7,29.96,ENE,62,0.0,0.0,23,0.00,,,0.00,LWC V2.00 B727,2017-03-25 10:22:00,
2017-03-25 03:27:00,55.3,19.1,29.96,ENE,62,0.0,0.0,24,0.00,,,0.00,LWC V2.00 B727,2017-03-25 10:27:00,
2017-03-25 03:32:00,53.9,19.8,29.96,ENE,62,0.0,0.0,26,0.00,,,0.00,LWC V2.00 B727,2017-03-25 10:32:00,
2017-03-25 03:37:00,53.2,19.2,29.96,ENE,62,0.0,0.0,26,0.00,,,0.00,LWC V2.00 B727,2017-03-25 10:37:00,
2017-03-25 03:42:00,53.2,19.2,29.96,ENE,63,0.0,0.0,26,0.00,,,0.00,LWC V2.00 B727,2017-03-25 10:42:00,
2017-03-25 03:47:00,53.3,19.3,29.96,ENE,63,0.0,0.0,26,0.00,,,0.00,LWC V2.00 B727,2017-03-25 10:47:00,
2017-03-25 03:52:00,53.5,18.6,29.96,ESE,119,0.0,0.0,25,0.00,,,0.00,LWC V2.00 B727,2017-03-25 10:52:00,
2017-03-25 03:57:00,53.6,18.6,29.96,ESE,121,0.0,0.0,25,0.00,,,0.00,LWC V2.00 B727,2017-03-25 10:57:00,
2017-03-25 04:02:00,53.8,18.8,29.95,ESE,121,0.0,0.0,25,0.00,,,0.00,LWC V2.00 B727,2017-03-25 11:02:00,
2017-03-25 04:07:00,53.8,17.9,29.95,ESE,121,0.0,0.0,24,0.00,,,0.00,LWC V2.00 B727,2017-03-25 11:07:00,
2017-03-25 04:12:00,53.9,18.0,29.95,ESE,121,0.0,0.0,24,0.00,,,0.00,LWC V2.00 B727,2017-03-25 11:12:00,
2017-03-25 04:17:00,53.9,18.0,29.95,ESE,121,0.0,0.0,24,0.00,,,0.00,LWC V2.00 B727,2017-03-25 11:17:00,
2017-03-25 04:22:00,53.9,18.9,29.95,ESE,121,0.0,0.0,25,0.00,,,0.00,LWC V2.00 B727,2017-03-25 11:22:00,
2017-03-25 04:27:00,54.1,19.1,29.95,ESE,121,0.0,0.0,25,0.00,,,0.00,LWC V2.00 B727,2017-03-25 11:27:00,
2017-03-25 04:32:00,53.6,19.6,29.95,ESE,121,0.0,0.0,26,0.00,,,0.00,LWC V2.00 B727,2017-03-25 11:32:00,
2017-03-25 04:37:00,53.3,19.3,29.94,ESE,120,0.0,0.0,26,0.00,,,0.00,LWC V2.00 B727,2017-03-25 11:37:00,
2017-03-25 04:42:00,53.1,20.0,29.94,ESE,120,0.0,0.0,27,0.00,,,0.00,LWC V2.00 B727,2017-03-25 11:42:00,
2017-03-25 04:47:00,52.8,19.8,29.93,ESE,106,0.0,0.0,27,0.00,,,0.00,LWC V2.00 B727,2017-03-25 11:47:00,
2017-03-25 04:52:00,52.5,19.5,29.93,East,89,0.0,0.0,27,0.00,,,0.00,LWC V2.00 B727,2017-03-25 11:52:00,
2017-03-25 04:57:00,52.8,18.9,29.92,East,89,0.0,0.0,26,0.00,,,0.00,LWC V2.00 B727,2017-03-25 11:57:00,
2017-03-25 05:02:00,53.3,18.4,29.92,East,89,0.0,0.0,25,0.00,,,0.00,LWC V2.00 B727,2017-03-25 12:02:00,
2017-03-25 05:07:00,53.8,17.9,29.91,East,89,0.0,0.0,24,0.00,,,0.00,LWC V2.00 B727,2017-03-25 12:07:00,
2017-03-25 05:12:00,54.1,18.1,29.91,East,89,0.0,0.0,24,0.00,,,0.00,LWC V2.00 B727,2017-03-25 12:12:00,
2017-03-25 05:17:00,54.2,18.2,29.91,East,89,0.0,0.0,24,0.00,,,0.00,LWC V2.00 B727,2017-03-25 12:17:00,
2017-03-25 05:22:00,53.5,17.6,29.91,NE,44,0.0,0.0,24,0.00,,,0.00,LWC V2.00 B727,2017-03-25 12:22:00,
2017-03-25 05:32:00,51.6,17.9,29.92,North,1,0.0,0.0,26,0.00,,,0.00,LWC V2.00 B727,2017-03-25 12:32:00,
2017-03-25 05:42:00,50.2,17.5,29.92,NE,46,0.0,0.0,27,0.00,,,0.00,LWC V2.00 B727,2017-03-25 12:42:00,
2017-03-25 05:47:00,50.1,16.6,29.92,East,92,0.0,0.0,26,0.00,,,0.00,LWC V2.00 B727,2017-03-25 12:47:00,
2017-03-25 05:52:00,50.2,15.8,29.93,East,97,0.0,0.0,25,0.00,,,0.00,LWC V2.00 B727,2017-03-25 12:52:00,
2017-03-25 05:57:00,50.7,17.1,29.93,ESE,112,0.0,0.0,26,0.00,,,0.00,LWC V2.00 B727,2017-03-25 12:57:00,
2017-03-25 06:02:00,51.1,16.5,29.93,SSE,156,0.0,0.0,25,0.00,,,0.00,LWC V2.00 B727,2017-03-25 13:02:00,
2017-03-25 06:07:00,51.4,16.8,29.93,SE,140,0.0,0.0,25,0.00,,,0.00,LWC V2.00 B727,2017-03-25 13:07:00,
2017-03-25 06:12:00,51.4,16.8,29.93,SE,143,0.0,0.0,25,0.00,,,0.00,LWC V2.00 B727,2017-03-25 13:12:00,
2017-03-25 06:17:00,51.7,17.0,29.93,SE,143,0.0,0.0,25,0.00,,,0.00,LWC V2.00 B727,2017-03-25 13:17:00,
2017-03-25 06:27:00,51.6,17.9,29.93,SE,143,0.0,0.0,26,0.00,,,0.00,LWC V2.00 B727,2017-03-25 13:27:00,
2017-03-25 06:32:00,51.3,18.5,29.94,SE,140,0.0,0.0,27,0.00,,,0.00,LWC V2.00 B727,2017-03-25 13:32:00,
2017-03-25 06:37:00,50.5,18.6,29.94,ESE,102,0.0,0.0,28,0.00,,,0.00,LWC V2.00 B727,2017-03-25 13:37:00,
2017-03-25 06:42:00,49.6,17.9,29.94,East,100,0.0,0.0,28,0.00,,,0.00,LWC V2.00 B727,2017-03-25 13:42:00,
2017-03-25 06:47:00,49.2,17.5,29.95,ENE,76,0.0,0.0,28,0.00,,,0.00,LWC V2.00 B727,2017-03-25 13:47:00,
2017-03-25 06:52:00,48.8,17.2,29.95,ENE,77,0.0,0.0,28,0.00,,,0.00,LWC V2.00 B727,2017-03-25 13:52:00,
2017-03-25 06:57:00,48.6,16.2,29.94,ENE,77,0.0,0.0,27,0.00,,,0.00,LWC V2.00 B727,2017-03-25 13:57:00,
2017-03-25 07:02:00,48.9,17.2,29.94,ENE,73,0.0,0.0,28,0.00,,,0.00,LWC V2.00 B727,2017-03-25 14:02:00,
2017-03-25 07:07:00,49.5,16.9,29.94,ENE,73,0.0,0.0,27,0.00,,,0.00,LWC V2.00 B727,2017-03-25 14:07:00,
2017-03-25 07:12:00,50.4,17.7,29.94,ENE,73,0.0,0.0,27,0.00,,,0.00,LWC V2.00 B727,2017-03-25 14:12:00,
2017-03-25 07:17:00,51.7,17.0,29.94,NE,42,0.0,0.0,25,0.00,,,0.00,LWC V2.00 B727,2017-03-25 14:17:00,
2017-03-25 07:22:00,53.2,17.4,29.94,NE,46,0.0,0.0,24,0.00,,,0.00,LWC V2.00 B727,2017-03-25 14:22:00,
2017-03-25 07:27:00,54.4,18.4,29.94,NE,46,6.0,6.0,24,0.00,,,0.00,LWC V2.00 B727,2017-03-25 14:27:00,
2017-03-25 07:32:00,55.1,18.0,29.94,NE,42,5.0,7.0,23,0.00,,,0.00,LWC V2.00 B727,2017-03-25 14:32:00,
2017-03-25 07:42:00,55.9,18.7,29.93,NNE,33,6.0,7.0,23,0.00,,,0.00,LWC V2.00 B727,2017-03-25 14:42:00,
2017-03-25 07:47:00,56.2,19.9,29.93,NE,34,5.0,7.0,24,0.00,,,0.00,LWC V2.00 B727,2017-03-25 14:47:00,
2017-03-25 07:52:00,56.6,19.2,29.93,NNE,15,4.0,5.0,23,0.00,,,0.00,LWC V2.00 B727,2017-03-25 14:52:00,
2017-03-25 07:57:00,57.2,21.7,29.94,NNE,16,0.0,3.0,25,0.00,,,0.00,LWC V2.00 B727,2017-03-25 14:57:00,
2017-03-25 08:02:00,57.5,21.0,29.94,NNE,13,0.0,0.0,24,0.00,,,0.00,LWC V2.00 B727,2017-03-25 15:02:00,
2017-03-25 08:07:00,58.1,23.4,29.95,North,354,0.0,0.0,26,0.00,,,0.00,LWC V2.00 B727,2017-03-25 15:07:00,
2017-03-25 08:12:00,59.0,21.3,29.96,North,353,0.0,0.0,23,0.00,,,0.00,LWC V2.00 B727,2017-03-25 15:12:00,
2017-03-25 08:17:00,59.3,21.5,29.96,NW,313,0.0,0.0,23,0.00,,,0.00,LWC V2.00 B727,2017-03-25 15:17:00,
2017-03-25 08:22:00,59.5,21.7,29.96,South,185,0.0,0.0,23,0.00,,,0.00,LWC V2.00 B727,2017-03-25 15:22:00,
2017-03-25 08:27:00,59.3,23.5,29.96,SSE,151,2.0,6.0,25,0.00,,,0.00,LWC V2.00 B727,2017-03-25 15:27:00,
2017-03-25 08:37:00,58.6,23.8,29.96,SE,141,0.0,0.0,26,0.00,,,0.00,LWC V2.00 B727,2017-03-25 15:37:00,
2017-03-25 08:42:00,58.7,23.9,29.96,SE,141,0.0,0.0,26,0.00,,,0.00,LWC V2.00 B727,2017-03-25 15:42:00,
2017-03-25 08:52:00,61.0,21.9,29.96,SE,141,0.0,0.0,22,0.00,,,0.00,LWC V2.00 B727,2017-03-25 15:52:00,
2017-03-25 08:57:00,62.0,20.5,29.96,SE,141,0.0,0.0,20,0.00,,,0.00,LWC V2.00 B727,2017-03-25 15:57:00,
2017-03-25 09:02:00,62.4,20.8,29.95,SE,141,0.0,0.0,20,0.00,,,0.00,LWC V2.00 B727,2017-03-25 16:02:00,
2017-03-25 09:07:00,62.7,21.1,29.96,SE,141,0.0,0.0,20,0.00,,,0.00,LWC V2.00 B727,2017-03-25 16:07:00,
2017-03-25 09:12:00,63.4,22.8,29.95,SE,142,0.0,0.0,21,0.00,,,0.00,LWC V2.00 B727,2017-03-25 16:12:00,
2017-03-25 09:17:00,63.5,22.9,29.94,SE,146,0.0,0.0,21,0.00,,,0.00,LWC V2.00 B727,2017-03-25 16:17:00,
2017-03-25 09:22:00,63.9,22.0,29.94,SE,139,0.0,0.0,20,0.00,,,0.00,LWC V2.00 B727,2017-03-25 16:22:00,
2017-03-25 09:27:00,64.2,21.1,29.94,SE,139,0.0,0.0,19,0.00,,,0.00,LWC V2.00 B727,2017-03-25 16:27:00,
2017-03-25 09:32:00,64.7,21.5,29.94,SE,139,0.0,0.0,19,0.00,,,0.00,LWC V2.00 B727,2017-03-25 16:32:00,
2017-03-25 09:37:00,65.0,20.5,29.94,SE,141,0.0,0.0,18,0.00,,,0.00,LWC V2.00 B727,2017-03-25 16:37:00,
2017-03-25 09:42:00,65.5,20.9,29.94,ESE,114,0.0,0.0,18,0.00,,,0.00,LWC V2.00 B727,2017-03-25 16:42:00,
2017-03-25 09:47:00,66.0,22.6,29.94,ESE,114,0.0,0.0,19,0.00,,,0.00,LWC V2.00 B727,2017-03-25 16:47:00,
2017-03-25 09:57:00,67.1,22.2,29.93,ESE,114,0.0,0.0,18,0.00,,,0.00,LWC V2.00 B727,2017-03-25 16:57:00,
2017-03-25 10:02:00,67.9,18.6,29.93,ESE,112,0.0,0.0,15,0.00,,,0.00,LWC V2.00 B727,2017-03-25 17:02:00,
2017-03-25 10:07:00,67.9,20.1,29.93,ESE,112,0.0,0.0,16,0.00,,,0.00,LWC V2.00 B727,2017-03-25 17:07:00,
2017-03-25 10:12:00,68.3,17.3,29.92,South,183,0.0,0.0,14,0.00,,,0.00,LWC V2.00 B727,2017-03-25 17:12:00,
2017-03-25 10:17:00,68.1,17.1,29.92,WSW,241,4.0,8.0,14,0.00,,,0.00,LWC V2.00 B727,2017-03-25 17:17:00,
2017-03-25 10:22:00,67.9,17.0,29.93,SW,235,3.0,4.0,14,0.00,,,0.00,LWC V2.00 B727,2017-03-25 17:22:00,
2017-03-25 10:27:00,67.8,18.5,29.93,West,274,7.0,8.0,15,0.00,,,0.00,LWC V2.00 B727,2017-03-25 17:27:00,
2017-03-25 10:32:00,67.8,18.5,29.93,West,267,2.0,5.0,15,0.00,,,0.00,LWC V2.00 B727,2017-03-25 17:32:00,
2017-03-25 10:37:00,68.3,18.9,29.93,SSW,209,5.0,6.0,15,0.00,,,0.00,LWC V2.00 B727,2017-03-25 17:37:00,
2017-03-25 10:47:00,68.9,19.4,29.94,WSW,248,5.0,5.0,15,0.00,,,0.00,LWC V2.00 B727,2017-03-25 17:47:00,
2017-03-25 10:52:00,69.1,21.0,29.94,SW,232,5.0,8.0,16,0.00,,,0.00,LWC V2.00 B727,2017-03-25 17:52:00,
2017-03-25 10:57:00,69.8,20.1,29.94,WSW,241,4.0,10.0,15,0.00,,,0.00,LWC V2.00 B727,2017-03-25 17:57:00,
2017-03-25 11:02:00,69.8,20.1,29.94,WSW,244,6.0,9.0,15,0.00,,,0.00,LWC V2.00 B727,2017-03-25 18:02:00,
2017-03-25 11:07:00,70.1,20.3,29.93,South,190,4.0,9.0,15,0.00,,,0.00,LWC V2.00 B727,2017-03-25 18:07:00,
2017-03-25 11:12:00,70.4,20.5,29.92,WSW,254,7.0,13.0,15,0.00,,,0.00,LWC V2.00 B727,2017-03-25 18:12:00,
2017-03-25 11:17:00,70.9,20.9,29.92,SW,234,7.0,8.0,15,0.00,,,0.00,LWC V2.00 B727,2017-03-25 18:17:00,
2017-03-25 11:22:00,71.6,19.9,29.91,SW,230,5.0,10.0,14,0.00,,,0.00,LWC V2.00 B727,2017-03-25 18:22:00,
2017-03-25 11:27:00,71.8,20.0,29.92,SW,229,10.0,10.0,14,0.00,,,0.00,LWC V2.00 B727,2017-03-25 18:27:00,
2017-03-25 11:32:00,72.0,20.2,29.91,West,266,3.0,8.0,14,0.00,,,0.00,LWC V2.00 B727,2017-03-25 18:32:00,
2017-03-25 11:37:00,72.5,18.9,29.90,SW,219,10.0,11.0,13,0.00,,,0.00,LWC V2.00 B727,2017-03-25 18:37:00,
2017-03-25 11:42:00,72.5,18.9,29.90,SW,233,8.0,8.0,13,0.00,,,0.00,LWC V2.00 B727,2017-03-25 18:42:00,
2017-03-25 11:47:00,72.3,18.7,29.90,SSW,206,8.0,12.0,13,0.00,,,0.00,LWC V2.00 B727,2017-03-25 18:47:00,
2017-03-25 11:52:00,72.5,17.0,29.89,SSW,200,5.0,10.0,12,0.00,,,0.00,LWC V2.00 B727,2017-03-25 18:52:00,
2017-03-25 11:57:00,73.0,19.3,29.89,SSW,210,4.0,6.0,13,0.00,,,0.00,LWC V2.00 B727,2017-03-25 18:57:00,
2017-03-25 12:02:00,73.2,17.6,29.88,SSW,204,5.0,6.0,12,0.00,,,0.00,LWC V2.00 B727,2017-03-25 19:02:00,
2017-03-25 12:07:00,73.7,17.9,29.88,SSW,200,9.0,10.0,12,0.00,,,0.00,LWC V2.00 B727,2017-03-25 19:07:00,
2017-03-25 12:12:00,73.7,17.9,29.88,SSW,211,9.0,11.0,12,0.00,,,0.00,LWC V2.00 B727,2017-03-25 19:12:00,
2017-03-25 12:22:00,73.5,17.8,29.87,SW,219,11.0,13.0,12,0.00,,,0.00,LWC V2.00 B727,2017-03-25 19:22:00,
2017-03-25 12:27:00,73.9,16.1,29.87,SSW,204,0.0,9.0,11,0.00,,,0.00,LWC V2.00 B727,2017-03-25 19:27:00,
2017-03-25 12:32:00,74.0,14.0,29.87,SW,226,8.0,13.0,10,0.00,,,0.00,LWC V2.00 B727,2017-03-25 19:32:00,
2017-03-25 12:37:00,74.6,16.6,29.87,West,270,4.0,9.0,11,0.00,,,0.00,LWC V2.00 B727,2017-03-25 19:37:00,
2017-03-25 12:42:00,74.6,16.6,29.86,SW,218,6.0,14.0,11,0.00,,,0.00,LWC V2.00 B727,2017-03-25 19:42:00,
2017-03-25 12:47:00,74.4,14.3,29.86,SSW,204,13.0,13.0,10,0.00,,,0.00,LWC V2.00 B727,2017-03-25 19:47:00,
2017-03-25 12:52:00,74.6,18.6,29.86,SSW,212,12.0,12.0,12,0.00,,,0.00,LWC V2.00 B727,2017-03-25 19:52:00,
2017-03-25 12:57:00,74.4,16.5,29.86,SSW,210,7.0,16.0,11,0.00,,,0.00,LWC V2.00 B727,2017-03-25 19:57:00,
2017-03-25 13:02:00,74.6,20.5,29.86,WSW,252,4.0,4.0,13,0.00,,,0.00,LWC V2.00 B727,2017-03-25 20:02:00,
2017-03-25 13:07:00,74.9,18.9,29.86,WSW,246,5.0,14.0,12,0.00,,,0.00,LWC V2.00 B727,2017-03-25 20:07:00,
2017-03-25 13:12:00,75.3,19.2,29.86,South,183,8.0,17.0,12,0.00,,,0.00,LWC V2.00 B727,2017-03-25 20:12:00,
2017-03-25 13:17:00,74.9,20.7,29.85,SW,219,11.0,16.0,13,0.00,,,0.00,LWC V2.00 B727,2017-03-25 20:17:00,
2017-03-25 13:22:00,74.4,20.4,29.85,West,275,8.0,8.0,13,0.00,,,0.00,LWC V2.00 B727,2017-03-25 20:22:00,
2017-03-25 13:27:00,74.6,22.3,29.85,WSW,255,9.0,12.0,14,0.00,,,0.00,LWC V2.00 B727,2017-03-25 20:27:00,
2017-03-25 13:32:00,75.1,22.7,29.85,WSW,246,6.0,12.0,14,0.00,,,0.00,LWC V2.00 B727,2017-03-25 20:32:00,
2017-03-25 13:37:00,75.8,23.2,29.84,WSW,244,10.0,16.0,14,0.00,,,0.00,LWC V2.00 B727,2017-03-25 20:37:00,
2017-03-25 13:38:00,75.8,23.2,29.84,West,265,11.0,16.0,14,0.00,,,0.00,LWC V2.00 B727,2017-03-25 20:38:00,
2017-03-25 13:43:00,75.8,23.2,29.84,SW,225,8.0,13.0,14,0.00,,,0.00,LWC V2.00 B727,2017-03-25 20:43:00,
2017-03-25 13:48:00,75.1,22.7,29.84,SSW,200,11.0,13.0,14,0.00,,,0.00,LWC V2.00 B727,2017-03-25 20:48:00,
2017-03-25 13:53:00,74.2,21.9,29.84,WSW,241,5.0,10.0,14,0.00,,,0.00,LWC V2.00 B727,2017-03-25 20:53:00,
2017-03-25 13:58:00,74.4,22.1,29.83,West,261,0.0,4.0,14,0.00,,,0.00,LWC V2.00 B727,2017-03-25 20:58:00,
2017-03-25 14:03:00,74.9,22.5,29.83,WSW,244,8.0,8.0,14,0.00,,,0.00,LWC V2.00 B727,2017-03-25 21:03:00,
2017-03-25 14:08:00,75.1,22.7,29.82,WSW,244,5.0,17.0,14,0.00,,,0.00,LWC V2.00 B727,2017-03-25 21:08:00,
2017-03-25 14:13:00,75.4,22.9,29.82,WSW,253,11.0,16.0,14,0.00,,,0.00,LWC V2.00 B727,2017-03-25 21:13:00,
2017-03-25 14:18:00,75.6,23.0,29.82,SW,219,9.0,9.0,14,0.00,,,0.00,LWC V2.00 B727,2017-03-25 21:18:00,
2017-03-25 14:23:00,75.4,24.5,29.82,SW,229,15.0,15.0,15,0.00,,,0.00,LWC V2.00 B727,2017-03-25 21:23:00,
2017-03-25 14:28:00,75.4,22.9,29.81,SW,229,8.0,17.0,14,0.00,,,0.00,LWC V2.00 B727,2017-03-25 21:28:00,
2017-03-25 14:33:00,75.3,22.8,29.81,SW,234,0.0,6.0,14,0.00,,,0.00,LWC V2.00 B727,2017-03-25 21:33:00,
2017-03-25 14:38:00,75.8,23.2,29.81,NW,309,10.0,19.0,14,0.00,,,0.00,LWC V2.00 B727,2017-03-25 21:38:00,
2017-03-25 14:43:00,75.8,23.2,29.80,West,268,9.0,18.0,14,0.00,,,0.00,LWC V2.00 B727,2017-03-25 21:43:00,
2017-03-25 14:48:00,75.6,23.0,29.80,West,264,7.0,23.0,14,0.00,,,0.00,LWC V2.00 B727,2017-03-25 21:48:00,
2017-03-25 14:53:00,75.6,23.0,29.80,SSW,212,9.0,11.0,14,0.00,,,0.00,LWC V2.00 B727,2017-03-25 21:53:00,
2017-03-25 14:58:00,75.3,22.8,29.80,West,275,13.0,19.0,14,0.00,,,0.00,LWC V2.00 B727,2017-03-25 21:58:00,
2017-03-25 15:03:00,75.6,23.0,29.80,WNW,287,8.0,8.0,14,0.00,,,0.00,LWC V2.00 B727,2017-03-25 22:03:00,
2017-03-25 15:08:00,76.0,23.4,29.79,WSW,250,18.0,18.0,14,0.00,,,0.00,LWC V2.00 B727,2017-03-25 22:08:00,
2017-03-25 15:13:00,75.6,23.0,29.79,West,281,6.0,20.0,14,0.00,,,0.00,LWC V2.00 B727,2017-03-25 22:13:00,
2017-03-25 15:18:00,75.6,23.0,29.79,WNW,299,13.0,23.0,14,0.00,,,0.00,LWC V2.00 B727,2017-03-25 22:18:00,